| time (UTC) | temp F | wind direction | speed MPH | gust MPH | rain 1hr in | rain 24hr in | rain mn in | humidity % | barometer mb |
| 20260504043656 | 49 | 0 | 0.0 | 0.0 | 0.00 | 0.00 | 0.00 | 63 | 1010.5 |
| 20260504042717 | 49 | 0 | 0.0 | 1.0 | 0.00 | 0.00 | 0.00 | 62 | 1010.4 |
| 20260504041726 | 49 | 0 | 0.0 | 2.0 | 0.00 | 0.00 | 0.00 | 62 | 1010.3 |
| 20260504040733 | 49 | 0 | 1.0 | 3.0 | 0.00 | 0.00 | 0.00 | 62 | 1010.2 |
| 20260504035731 | 49 | 115 | 1.0 | 4.0 | 0.00 | 0.00 | 0.00 | 62 | 1010.1 |
| 20260504034734 | 49 | 128 | 1.0 | 4.0 | 0.00 | 0.00 | 0.00 | 62 | 1010.0 |
| 20260504033714 | 48 | 137 | 0.0 | 3.0 | 0.00 | 0.00 | 0.00 | 63 | 1010.1 |
| 20260504032658 | 48 | 146 | 0.0 | 0.0 | 0.00 | 0.00 | 0.00 | 63 | 1010.1 |
| 20260504031640 | 49 | 148 | 0.0 | 0.0 | 0.00 | 0.00 | 0.00 | 64 | 1010.1 |
| 20260504030620 | 49 | 147 | 0.0 | 0.0 | 0.00 | 0.00 | 0.00 | 64 | 1010.1 |
| 20260504022202 | 51 | 0 | 0.0 | 0.0 | 0.00 | 0.00 | 0.00 | 61 | 1010.0 |
| 20260504021158 | 52 | 0 | 0.0 | 0.0 | 0.00 | 0.00 | 0.00 | 60 | 1010.0 |
| 20260504020134 | 53 | 0 | 0.0 | 0.0 | 0.00 | 0.00 | 0.00 | 58 | 1010.0 |
| 20260504015125 | 53 | 0 | 0.0 | 0.0 | 0.00 | 0.00 | 0.00 | 57 | 1010.0 |
| 20260504014130 | 54 | 0 | 0.0 | 0.0 | 0.00 | 0.00 | 0.00 | 55 | 1009.9 |
| 20260504013120 | 55 | 146 | 0.0 | 1.0 | 0.00 | 0.00 | 0.00 | 53 | 1009.8 |
| 20260504012140 | 55 | 146 | 0.0 | 0.0 | 0.00 | 0.00 | 0.00 | 52 | 1009.7 |
| 20260504011119 | 56 | 146 | 0.0 | 0.0 | 0.00 | 0.00 | 0.00 | 50 | 1009.6 |
| 20260504010055 | 56 | 146 | 0.0 | 0.0 | 0.00 | 0.00 | 0.00 | 49 | 1009.5 |
| 20260504005115 | 57 | 144 | 0.0 | 0.0 | 0.00 | 0.00 | 0.00 | 48 | 1009.3 |
| 20260504004123 | 57 | 144 | 0.0 | 1.0 | 0.00 | 0.00 | 0.00 | 47 | 1009.2 |
| 20260504003137 | 57 | 176 | 0.0 | 2.0 | 0.00 | 0.00 | 0.00 | 46 | 1009.2 |
| 20260504002106 | 58 | 186 | 0.0 | 5.0 | 0.00 | 0.00 | 0.00 | 45 | 1008.9 |
| 20260504001031 | 58 | 195 | 1.0 | 4.0 | 0.00 | 0.00 | 0.00 | 45 | 1008.8 |
| 20260504000016 | 59 | 179 | 1.0 | 1.0 | 0.00 | 0.00 | 0.00 | 44 | 1008.6 |
| 20260503235018 | 59 | 195 | 0.0 | 8.0 | 0.00 | 0.00 | 0.00 | 44 | 1008.5 |
| 20260503232811 | 59 | 0 | 1.0 | 10.0 | 0.00 | 0.00 | 0.00 | 42 | 1008.3 |
| 20260503231752 | 59 | 0 | 1.0 | 9.0 | 0.00 | 0.00 | 0.00 | 42 | 1008.2 |
| 20260503225655 | 60 | 0 | 2.0 | 13.0 | 0.00 | 0.00 | 0.00 | 41 | 1008.1 |
| 20260503224627 | 60 | 211 | 3.0 | 13.0 | 0.00 | 0.00 | 0.00 | 41 | 1008.0 |
| 20260503223647 | 60 | 134 | 3.0 | 11.0 | 0.00 | 0.00 | 0.00 | 40 | 1008.0 |
| 20260503222654 | 60 | 263 | 3.0 | 15.0 | 0.00 | 0.00 | 0.00 | 40 | 1007.9 |
| 20260503221701 | 60 | 176 | 2.0 | 15.0 | 0.00 | 0.00 | 0.00 | 39 | 1007.9 |
| 20260503215513 | 61 | 202 | 4.0 | 15.0 | 0.00 | 0.00 | 0.00 | 39 | 1008.0 |
| 20260503214506 | 61 | 277 | 4.0 | 15.0 | 0.00 | 0.00 | 0.00 | 39 | 1007.9 |
| 20260503213510 | 61 | 77 | 3.0 | 14.0 | 0.00 | 0.00 | 0.00 | 39 | 1007.9 |
| 20260503212435 | 61 | 173 | 4.0 | 14.0 | 0.00 | 0.00 | 0.00 | 39 | 1007.9 |
| 20260503211422 | 61 | 0 | 4.0 | 23.0 | 0.00 | 0.00 | 0.00 | 38 | 1007.8 |
| 20260503210354 | 61 | 0 | 6.0 | 23.0 | 0.00 | 0.00 | 0.00 | 38 | 1007.9 |
| 20260503205351 | 62 | 0 | 5.0 | 18.0 | 0.00 | 0.00 | 0.00 | 37 | 1007.8 |
| 20260503204355 | 62 | 0 | 5.0 | 15.0 | 0.00 | 0.00 | 0.00 | 38 | 1008.0 |
| 20260503203356 | 63 | 0 | 4.0 | 15.0 | 0.00 | 0.00 | 0.00 | 38 | 1007.9 |
| 20260503202345 | 63 | 0 | 4.0 | 22.0 | 0.00 | 0.00 | 0.00 | 38 | 1007.9 |
| 20260503201317 | 63 | 0 | 3.0 | 22.0 | 0.00 | 0.00 | 0.00 | 38 | 1008.0 |
| 20260503200256 | 62 | 0 | 4.0 | 16.0 | 0.00 | 0.00 | 0.00 | 39 | 1008.1 |
| 20260503195304 | 63 | 0 | 4.0 | 18.0 | 0.00 | 0.00 | 0.00 | 38 | 1008.3 |
| 20260503194314 | 62 | 0 | 4.0 | 18.0 | 0.00 | 0.00 | 0.00 | 38 | 1008.3 |
| 20260503193323 | 63 | 0 | 3.0 | 16.0 | 0.00 | 0.00 | 0.00 | 39 | 1008.3 |
| 20260503191132 | 62 | 0 | 3.0 | 18.0 | 0.00 | 0.00 | 0.00 | 40 | 1008.6 |
| 20260503190151 | 61 | 0 | 4.0 | 23.0 | 0.00 | 0.00 | 0.00 | 40 | 1008.6 |
| 20260503183945 | 61 | 0 | 6.0 | 17.0 | 0.00 | 0.00 | 0.00 | 41 | 1008.6 |
| 20260503182953 | 61 | 0 | 5.0 | 17.0 | 0.00 | 0.00 | 0.00 | 41 | 1008.8 |
| 20260503181920 | 61 | 267 | 4.0 | 13.0 | 0.00 | 0.00 | 0.00 | 42 | 1008.9 |
| 20260503180924 | 59 | 83 | 4.0 | 16.0 | 0.00 | 0.00 | 0.00 | 44 | 1008.9 |
| 20260503174733 | 57 | 0 | 4.0 | 20.0 | 0.00 | 0.00 | 0.00 | 46 | 1009.2 |
| 20260503173741 | 56 | 355 | 5.0 | 20.0 | 0.00 | 0.00 | 0.00 | 46 | 1009.4 |
| 20260503172718 | 57 | 146 | 5.0 | 15.0 | 0.00 | 0.00 | 0.00 | 46 | 1009.4 |
| 20260503171721 | 56 | 0 | 3.0 | 14.0 | 0.00 | 0.00 | 0.00 | 49 | 1009.3 |
| 20260503170713 | 55 | 0 | 4.0 | 15.0 | 0.00 | 0.00 | 0.00 | 48 | 1009.6 |
| 20260503130842 | 51 | 277 | 4.0 | 13.0 | 0.00 | 0.00 | 0.00 | 59 | 1009.9 |
| 20260503110648 | 44 | 236 | 2.0 | 13.0 | 0.00 | 0.00 | 0.00 | 67 | 1009.6 |
| 20260503080712 | 46 | 187 | 0.0 | 4.0 | 0.00 | 0.02 | 0.00 | 64 | 1008.5 |
| 20260503072507 | 46 | 300 | 0.0 | 5.0 | 0.00 | 0.02 | 0.00 | 63 | 1008.3 |
| 20260503070339 | 48 | 226 | 0.0 | 0.0 | 0.00 | 0.02 | 0.00 | 62 | 1008.5 |
| 20260503060324 | 49 | 232 | 0.0 | 1.0 | 0.00 | 0.02 | 0.00 | 58 | 1008.6 |
| 20260503054203 | 50 | 297 | 0.0 | 5.0 | 0.00 | 0.02 | 0.00 | 56 | 1008.7 |
| 20260503053221 | 50 | 0 | 1.0 | 5.0 | 0.00 | 0.02 | 0.00 | 56 | 1008.8 |
| 20260503052219 | 50 | 0 | 1.0 | 5.0 | 0.00 | 0.02 | 0.00 | 55 | 1009.0 |
| 20260503051227 | 50 | 285 | 1.0 | 6.0 | 0.00 | 0.02 | 0.00 | 54 | 1009.0 |
| 20260503045108 | 51 | 0 | 2.0 | 8.0 | 0.00 | 0.02 | 0.00 | 54 | 1009.1 |